Sanford, ME

10:47 PM EDT on September 20, 2019 (GMT -0400)
Sanford Regional

Weather History for KSFM - August, 2019

Change the Weather History Date:

Saturday, August 24, 2019

  Actual Average Record
Temperature  
Mean Temperature 59 °F -  
Max Temperature 73 °F 75 °F 89 °F (2007)
Min Temperature 45 °F 51 °F 26 °F (1999)
Degree Days  
Heating Degree Days 6    
Growing Degree Days 9 (Base 50)    
Moisture  
Dew Point 53 °F    
Average Humidity 77    
Maximum Humidity 100    
Minimum Humidity 55    
Precipitation  
Precipitation 0.00 in - - ()
Sea Level Pressure  
Sea Level Pressure 30.20 in    
Wind  
Wind Speed 4 mph (NNE)    
Max Wind Speed 15 mph    
Max Gust Speed -    
Visibility 10 miles    
Events      
Averages and records for this station are not official NWS values.
T = Trace of Precipitation, MM = Missing Value Source: NWS Daily Summary

Daily Weather History Graph

Daily Weather History Graph

Search for Another Location

Airport or City:

Astronomy

Aug. 24, 2019 Rise Set
Actual Time 5:57 AM EDT 7:32 PM EDT
Civil Twilight 5:27 AM EDT 8:01 PM EDT
Nautical Twilight 4:51 AM EDT 8:38 PM EDT
Astronomical Twilight 4:12 AM EDT 9:17 PM EDT
Moon No Moon Rise 2:49 PM EDT (8/24)
Length of Visible Light 14h 34m
Length of Day
13h 34m
Last Quarter, 39% of the Moon is Illuminated
Aug 24
Last Quarter
Aug 30
New
Sep 5
First Quarter
Sep 14
Full
Sep 21
Last Quarter

Hourly Weather History & Observations

Time (EDT) Temp. Dew Point Humidity Pressure Visibility Wind Dir Wind Speed Gust Speed Precip Events Conditions
12:56 AM 50.0 °F 48.9 °F 96% 30.06 in 10.0 mi Calm Calm - N/A   Clear
1:56 AM 48.9 °F 48.0 °F 97% 30.07 in 10.0 mi Calm Calm - N/A   Clear
2:56 AM 48.0 °F 46.9 °F 96% 30.09 in 10.0 mi WNW 4.6 mph - N/A   Clear
3:56 AM 48.9 °F 48.0 °F 97% 30.08 in 10.0 mi West 3.5 mph - N/A   Clear
5:56 AM 45.0 °F 45.0 °F 100% 30.12 in 10.0 mi Calm Calm - N/A   Clear
6:56 AM 52.0 °F 51.1 °F 97% 30.15 in 10.0 mi Calm Calm - N/A   Clear
7:56 AM 60.1 °F 53.1 °F 78% 30.17 in 10.0 mi North 5.8 mph - N/A   Clear
8:56 AM 64.9 °F 53.1 °F 65% 30.17 in 10.0 mi NNE 10.4 mph - N/A   Clear
9:56 AM 66.9 °F 54.0 °F 63% 30.18 in 10.0 mi North 10.4 mph - N/A   Clear
10:56 AM 70.0 °F 55.9 °F 61% 30.18 in 10.0 mi NE 6.9 mph - N/A   Mostly Cloudy
11:56 AM 70.0 °F 55.0 °F 59% 30.19 in 10.0 mi NE 6.9 mph - N/A   Mostly Cloudy
12:56 PM 70.0 °F 55.0 °F 59% 30.20 in 10.0 mi NE 10.4 mph - N/A   Overcast
1:56 PM 71.1 °F 55.0 °F 57% 30.21 in 10.0 mi NE 8.1 mph - N/A   Overcast
2:56 PM 72.0 °F 55.9 °F 57% 30.21 in 10.0 mi NE 10.4 mph - N/A   Scattered Clouds
3:56 PM 73.0 °F 55.9 °F 55% 30.21 in 10.0 mi NNE 15.0 mph - N/A   Scattered Clouds
4:56 PM 71.1 °F 55.0 °F 57% 30.22 in 10.0 mi NNE 10.4 mph - N/A   Partly Cloudy
5:56 PM 70.0 °F 53.1 °F 55% 30.24 in 10.0 mi ENE 13.8 mph - N/A   Clear
6:56 PM 68.0 °F 55.0 °F 63% 30.26 in 10.0 mi NE 6.9 mph - N/A   Clear
7:56 PM 61.0 °F 55.9 °F 83% 30.28 in 10.0 mi East 3.5 mph - N/A   Clear
8:56 PM 55.9 °F 55.0 °F 97% 30.31 in 10.0 mi Calm Calm - N/A   Mostly Cloudy
9:56 PM 59.0 °F 57.0 °F 93% 30.32 in 10.0 mi Calm Calm - N/A   Overcast
10:56 PM 59.0 °F 57.0 °F 93% 30.33 in 10.0 mi Calm Calm - N/A   Overcast
11:56 PM 57.9 °F 57.0 °F 97% 30.34 in 10.0 mi Calm Calm - N/A   Partly Cloudy